[[{"header":{"parameterUnit":"m.s-1","parameterCategory":1,"la1":30.2991,"la2":30.254,"lo1":-89.0895,"lo2":-89.0444,"dy":0.0017,"dx":0.0017,"nx":28,"ny":28,"refTime":"2024-10-09T03:00:00:Z","depth":0,"parameterNumber":2,"parameterNumberName":"U-component_of_WINDS"},"data":[0,0,0,0,0,0,0,0,0,0,0,0,0,0,0,0,0,0,0,0,0,0,0,0,0,0,0,0,0,0,0,0,0,0,0,0,0,0,0,0,0,0,0,0,0,0,0,0,0,0,0,0,0,0,0,0,0,0,-1.052,-1.0521,0,-1.0605,-1.0606,-1.0607,-1.0588,-1.0586,-1.0585,-1.0583,-1.0671,-1.0675,-1.0679,0,0,0,0,0,0,0,0,0,0,0,0,0,-1.0344,-1.0347,-1.052,-1.0521,-1.0522,-1.0605,-1.0606,-1.0607,-1.0588,-1.0586,-1.0584,-1.0582,-1.067,-1.0675,-1.0679,0,0,0,0,0,0,0,0,0,0,0,0,0,-1.0424,-1.0348,-1.052,-1.0523,-1.0524,-1.0604,-1.0606,-1.0607,-1.0589,-1.0586,-1.0584,-1.0581,-1.0668,-1.0674,-1.068,-1.0763,0,0,-1.0697,-1.07,0,0,0,0,0,0,0,0,-1.0419,-1.043,-1.0521,-1.0523,-1.0524,-1.0583,-1.0576,-1.066,-1.0589,-1.0564,-1.0583,-1.058,-1.0644,-1.0652,-1.0673,-1.0767,-1.0771,-1.0698,-1.0701,-1.0704,-1.0705,0,0,0,0,0,0,0,-1.0414,-1.0426,-1.0554,-1.0523,-1.0524,-1.052,-1.0529,-1.0592,-1.0616,-1.0566,-1.0565,-1.0575,-1.0644,-1.0667,-1.0675,-1.0772,-1.0698,-1.0703,-1.0706,-1.0709,-1.094,-1.0943,0,0,0,0,0,0,-1.0407,-1.0422,-1.0551,-1.0556,-1.0465,-1.0525,-1.0535,-1.0567,-1.0616,-1.0621,-1.0577,-1.0574,-1.0659,-1.0668,-1.0678,-1.078,-1.0704,-1.0709,-1.0712,-1.0938,-1.0941,-1.0944,0,0,0,0,0,0,-1.0403,-1.0418,-1.0548,-1.0489,-1.0505,-1.0531,-1.0567,-1.057,-1.0593,-1.0624,-1.0628,-1.0596,-1.0657,-1.067,-1.0742,-1.0782,-1.0712,-1.0717,-1.0934,-1.0939,-1.0942,-1.0983,0,0,0,0,0,0,-1.0398,-1.0417,-1.0449,-1.049,-1.0508,-1.061,-1.0569,-1.0573,-1.0602,-1.0599,-1.0643,-1.0648,-1.0656,-1.0734,-1.0748,-1.0789,-1.0721,-1.0931,-1.0936,-1.0941,-1.0979,-1.0988,-1.0997,0,0,0,0,0,-1.0392,-1.0457,-1.0451,-1.0466,-1.0548,-1.0613,-1.0623,-1.0631,-1.0606,-1.0638,-1.0658,-1.0646,-1.0775,-1.0741,-1.0757,-1.0801,-1.0928,-1.0935,-1.0941,-1.0975,-1.0987,-1.0997,0,0,0,0,0,0,-1.0421,-1.0463,-1.0456,-1.0536,-1.0571,-1.0609,-1.0651,-1.0643,-1.0687,-1.0682,-1.069,-1.07,-1.0774,-1.0794,-1.0756,-1.0884,-1.0848,-1.0858,-1.0869,-1.088,-1.0889,-1.0884,-1.0726,0,0,0,0,0,-1.0437,-1.0485,-1.0519,-1.0587,-1.0605,-1.0625,-1.0653,-1.0656,-1.0692,-1.0707,-1.0733,-1.0769,-1.0818,-1.085,-1.0896,-1.0981,-1.0991,-1.1018,-1.1027,-1.1035,-1.1044,-1.1091,-1.1104,-1.0964,-1.0964,-1.0964,0,0,-1.047,-1.0499,-1.0529,-1.0593,-1.0621,-1.0672,-1.0637,-1.0692,-1.073,-1.0716,-1.0786,-1.0806,-1.0847,-1.0926,-1.0962,-1.0945,-1.1084,-1.1042,-1.1048,-1.1053,-1.1099,-1.1112,-1.1124,-1.0968,-1.0967,-1.0966,0,0,-1.0557,-1.0583,-1.0643,-1.0671,-1.0712,-1.0725,-1.0739,-1.0779,-1.0792,-1.0862,-1.0852,-1.0898,-1.0981,-1.1011,-1.1037,-1.1135,-1.1126,-1.115,-1.1198,-1.1244,-1.1255,-1.1265,-1.1301,-1.1314,-1.1158,-1.1158,-1.1158,0,-1.0594,-1.0669,-1.0675,-1.0731,-1.076,-1.0748,-1.081,-1.0836,-1.0891,-1.0912,-1.0891,-1.0996,-1.1023,-1.111,-1.1133,-1.1154,-1.1172,-1.1146,-1.1253,-1.1263,-1.1272,-1.1307,-1.1321,-1.1161,-1.116,-1.116,-1.116,0,-1.0713,-1.0765,-1.0809,-1.0862,-1.0895,-1.0954,-1.0968,-1.1002,-1.1001,-1.1017,-1.1089,-1.112,-1.1173,-1.1193,-1.1194,-1.1281,-1.1269,-1.125,-1.1215,-1.1288,-1.1321,-1.1334,-1.1165,-1.1164,-1.1163,-1.1162,0,0,-1.0823,-1.0877,-1.0893,-1.0918,-1.0962,-1.1003,-1.1061,-1.1112,-1.1141,-1.1179,-1.1229,-1.1299,-1.1283,-1.1312,-1.1316,-1.1356,-1.1433,-1.1333,-1.1334,-1.1352,-1.1532,-1.1547,-1.1562,-1.1426,-1.1429,-1.1431,-1.1529,0,-1.0915,-1.1017,-1.1023,-1.1116,-1.1165,-1.1154,-1.1205,-1.1238,-1.1253,-1.1297,-1.1314,-1.1365,-1.1338,-1.1356,-1.1395,-1.1415,-1.147,-1.1408,-1.1474,-1.1476,-1.1466,-1.1579,-1.1595,-1.1687,-1.1542,-1.1544,-1.1546,0,-1.1037,-1.1078,-1.1176,-1.1214,-1.1235,-1.128,-1.1328,-1.137,-1.1407,-1.1415,-1.1448,-1.1446,-1.1506,-1.1467,-1.155,-1.1508,-1.1535,-1.1549,-1.1553,-1.1561,-1.1517,-1.1592,-1.1716,-1.173,-1.1566,-1.1564,-1.1563,0,-1.1109,-1.1189,-1.1258,-1.1279,-1.1324,-1.1357,-1.1377,-1.1412,-1.1443,-1.1484,-1.1505,-1.1553,-1.158,-1.1617,-1.1628,-1.1598,-1.1712,-1.1673,-1.1722,-1.1722,-1.1748,-1.1747,-1.1879,-1.1762,-1.1762,-1.1761,-1.1761,0,-1.1213,-1.1274,-1.1291,-1.1334,-1.1401,-1.1408,-1.1475,-1.1493,-1.1524,-1.1571,-1.1564,-1.1608,-1.1618,-1.1664,-1.1673,-1.1742,-1.1753,-1.1763,-1.1765,-1.1765,-1.1764,-1.1784,-1.1779,-1.1765,-1.1764,-1.1764,-1.1763,0,-1.1307,-1.132,-1.1395,-1.1432,-1.1442,-1.1491,-1.1523,-1.1564,-1.1577,-1.1637,-1.1651,-1.1673,-1.1727,-1.1741,-1.1805,-1.1811,-1.1892,-1.1887,-1.188,-1.188,-1.1929,-1.1925,-1.2081,-1.2103,-1.1969,-1.1971,-1.1972,0,-1.1373,-1.1419,-1.1461,-1.1491,-1.1513,-1.1562,-1.1593,-1.1601,-1.1634,-1.168,-1.1716,-1.1768,-1.1811,-1.1898,-1.192,-1.197,-1.1967,-1.2018,-1.1975,-1.1973,-1.197,-1.1968,-1.1973,-1.2027,-1.2029,-1.203,-1.2031,0,-1.149,-1.1494,-1.1539,-1.1587,-1.1624,-1.1662,-1.1698,-1.1724,-1.1736,-1.1774,-1.1829,-1.1862,-1.1927,-1.198,-1.203,-1.2052,-1.2044,-1.2044,-1.2058,-1.206,-1.2054,-1.206,-1.1905,-1.2041,-1.204,-1.2039,-1.2039,-1.2038,-1.1573,-1.1614,-1.165,-1.17,-1.1728,-1.1762,-1.1803,-1.1822,-1.1867,-1.1921,-1.1923,-1.1983,-1.2019,-1.2085,-1.2109,-1.2157,-1.2141,-1.2162,-1.2167,-1.2173,-1.2178,-1.2045,-1.2166,-1.2165,-1.2165,-1.2165,-1.2165,0,-1.1691,-1.1713,-1.176,-1.181,-1.185,-1.1838,-1.1878,-1.1912,-1.1965,-1.1999,-1.2041,-1.2105,-1.2156,-1.2182,-1.2233,-1.2266,-1.2264,-1.2279,-1.2278,-1.2283,-1.2188,-1.2171,-1.228,-1.228,-1.228,-1.228,-1.228,-1.228,-1.1757,-1.1827,-1.1835,-1.1918,-1.194,-1.1999,-1.2022,-1.2054,-1.2082,-1.2153,-1.2195,-1.2211,-1.2242,-1.2295,-1.2342,-1.2348,-1.2369,-1.2386,-1.2391,-1.2302,-1.229,-1.2279,-1.2263,-1.239,-1.239,-1.2483,-1.2484,-1.2485]},{"header":{"parameterUnit":"m.s-1","parameterCategory":1,"la1":30.2991,"la2":30.254,"lo1":-89.0895,"lo2":-89.0444,"dy":0.0017,"dx":0.0017,"nx":28,"ny":28,"refTime":"2024-10-09T03:00:00:Z","depth":0,"parameterNumber":3,"parameterNumberName":"V-component_of_WINDS"},"data":[0,0,0,0,0,0,0,0,0,0,0,0,0,0,0,0,0,0,0,0,0,0,0,0,0,0,0,0,0,0,0,0,0,0,0,0,0,0,0,0,0,0,0,0,0,0,0,0,0,0,0,0,0,0,0,0,0,0,-4.7508,-4.7509,0,-4.7573,-4.7574,-4.7574,-4.7502,-4.7499,-4.7497,-4.7494,-4.7556,-4.756,-4.7564,0,0,0,0,0,0,0,0,0,0,0,0,0,-4.7318,-4.7322,-4.7508,-4.7509,-4.751,-4.7573,-4.7574,-4.7574,-4.7503,-4.7499,-4.7496,-4.7493,-4.7555,-4.756,-4.7565,0,0,0,0,0,0,0,0,0,0,0,0,0,-4.7393,-4.7323,-4.7508,-4.7482,-4.748,-4.7573,-4.7574,-4.7575,-4.7503,-4.7499,-4.7495,-4.7491,-4.7553,-4.7559,-4.7566,-4.7686,0,0,-4.7585,-4.7587,0,0,0,0,0,0,0,0,-4.7389,-4.74,-4.7485,-4.7484,-4.7482,-4.7525,-4.7529,-4.7612,-4.7504,-4.7494,-4.7494,-4.7489,-4.7549,-4.7555,-4.7576,-4.7689,-4.7692,-4.7585,-4.7589,-4.7592,-4.7594,0,0,0,0,0,0,0,-4.7384,-4.7397,-4.7534,-4.7486,-4.7484,-4.7465,-4.7471,-4.7545,-4.7544,-4.7495,-4.749,-4.7499,-4.7547,-4.757,-4.7577,-4.7693,-4.7585,-4.7591,-4.7595,-4.7597,-4.7906,-4.7911,0,0,0,0,0,0,-4.7382,-4.7393,-4.7532,-4.7536,-4.7425,-4.7472,-4.7479,-4.7515,-4.7543,-4.7543,-4.7502,-4.7495,-4.7562,-4.757,-4.7579,-4.7722,-4.7592,-4.7598,-4.7601,-4.7902,-4.7907,-4.7912,0,0,0,0,0,0,-4.7379,-4.7396,-4.7529,-4.7463,-4.7479,-4.7479,-4.7521,-4.7519,-4.7542,-4.7548,-4.7547,-4.7526,-4.7559,-4.757,-4.766,-4.7723,-4.7601,-4.7606,-4.7897,-4.7904,-4.791,-4.8008,0,0,0,0,0,0,-4.7374,-4.7395,-4.7442,-4.7465,-4.7483,-4.7611,-4.7525,-4.7523,-4.7553,-4.7545,-4.757,-4.7571,-4.7556,-4.7651,-4.7666,-4.7729,-4.7611,-4.7891,-4.79,-4.7908,-4.8,-4.8018,-4.8033,0,0,0,0,0,-4.7367,-4.7466,-4.7444,-4.7461,-4.7542,-4.7614,-4.7624,-4.7607,-4.7559,-4.7605,-4.7609,-4.757,-4.7714,-4.7661,-4.7678,-4.7743,-4.7887,-4.7897,-4.7907,-4.7992,-4.8014,-4.8033,0,0,0,0,0,0,-4.7449,-4.7469,-4.7445,-4.7555,-4.7584,-4.7602,-4.766,-4.7631,-4.7673,-4.7663,-4.7639,-4.7645,-4.7741,-4.7751,-4.7692,-4.7861,-4.7792,-4.7806,-4.7851,-4.7872,-4.7889,-4.7884,-4.7616,0,0,0,0,0,-4.748,-4.7539,-4.7552,-4.7648,-4.7664,-4.766,-4.7691,-4.7675,-4.7703,-4.7715,-4.7725,-4.7753,-4.7804,-4.7839,-4.7886,-4.8,-4.8004,-4.8054,-4.807,-4.8084,-4.8096,-4.8157,-4.8179,-4.7945,-4.7945,-4.7945,0,0,-4.7544,-4.7562,-4.7601,-4.7665,-4.7685,-4.7746,-4.767,-4.7737,-4.7781,-4.7724,-4.7811,-4.7819,-4.7848,-4.7951,-4.7997,-4.7962,-4.8162,-4.8097,-4.8108,-4.8113,-4.817,-4.8192,-4.8211,-4.7952,-4.795,-4.7949,0,0,-4.7692,-4.7712,-4.7794,-4.7816,-4.7849,-4.7845,-4.7865,-4.7888,-4.7892,-4.7978,-4.7937,-4.7988,-4.8077,-4.8099,-4.8123,-4.8279,-4.8244,-4.8295,-4.8383,-4.8442,-4.846,-4.8476,-4.8532,-4.8552,-4.8307,-4.8307,-4.8307,0,-4.7768,-4.7859,-4.7839,-4.791,-4.7939,-4.7891,-4.7973,-4.7995,-4.8041,-4.8061,-4.8022,-4.8133,-4.8149,-4.8256,-4.8294,-4.8315,-4.8335,-4.8292,-4.8459,-4.8475,-4.849,-4.8543,-4.8564,-4.8313,-4.8312,-4.8312,-4.8311,0,-4.7949,-4.8013,-4.8075,-4.8122,-4.8157,-4.8233,-4.8224,-4.8262,-4.8243,-4.8243,-4.8331,-4.8349,-4.8399,-4.8423,-4.8405,-4.8527,-4.8505,-4.8464,-4.8394,-4.8519,-4.8568,-4.8588,-4.8322,-4.832,-4.8318,-4.8316,0,0,-4.8151,-4.8187,-4.821,-4.8231,-4.8263,-4.8311,-4.8383,-4.8434,-4.8467,-4.85,-4.8559,-4.8636,-4.8597,-4.8624,-4.8607,-4.8659,-4.8781,-4.8611,-4.8611,-4.8642,-4.8917,-4.8949,-4.8972,-4.8758,-4.8762,-4.8765,-4.8915,0,-4.83,-4.8428,-4.8413,-4.8535,-4.8593,-4.8548,-4.8611,-4.8637,-4.8639,-4.8687,-4.8688,-4.8743,-4.8688,-4.8703,-4.8753,-4.8756,-4.8836,-4.8745,-4.8813,-4.8815,-4.8807,-4.8998,-4.9032,-4.9172,-4.8934,-4.8937,-4.8939,0,-4.8491,-4.8532,-4.8661,-4.8684,-4.8707,-4.8765,-4.8809,-4.8856,-4.8884,-4.8882,-4.8911,-4.8885,-4.8957,-4.8886,-4.8983,-4.8921,-4.8948,-4.8953,-4.8958,-4.8964,-4.8885,-4.9009,-4.9216,-4.9238,-4.8969,-4.8967,-4.8965,0,-4.8626,-4.8713,-4.8801,-4.882,-4.8849,-4.889,-4.8904,-4.8928,-4.8959,-4.8997,-4.9017,-4.9063,-4.9088,-4.9123,-4.911,-4.9059,-4.921,-4.9138,-4.9209,-4.9209,-4.9243,-4.9241,-4.9458,-4.926,-4.926,-4.9259,-4.9259,0,-4.8794,-4.8874,-4.8862,-4.8916,-4.9004,-4.8985,-4.9072,-4.9079,-4.9101,-4.9155,-4.9118,-4.9169,-4.9148,-4.9197,-4.9187,-4.9269,-4.928,-4.9279,-4.9276,-4.9283,-4.9283,-4.93,-4.929,-4.9265,-4.9264,-4.9262,-4.9261,0,-4.8959,-4.8954,-4.9047,-4.9068,-4.9074,-4.9138,-4.9155,-4.9205,-4.9204,-4.9272,-4.9287,-4.9285,-4.9341,-4.9331,-4.9392,-4.9385,-4.9488,-4.9472,-4.9479,-4.9475,-4.9547,-4.9541,-4.9782,-4.9813,-4.9596,-4.9598,-4.9599,0,-4.9067,-4.9128,-4.9154,-4.9189,-4.9206,-4.9261,-4.9293,-4.9275,-4.931,-4.9346,-4.9391,-4.9444,-4.9486,-4.9576,-4.958,-4.9626,-4.9611,-4.9692,-4.9618,-4.9623,-4.9612,-4.9609,-4.9615,-4.9707,-4.971,-4.9712,-4.9714,0,-4.9258,-4.9253,-4.9301,-4.9349,-4.9389,-4.9425,-4.9457,-4.9487,-4.9472,-4.9512,-4.9569,-4.9602,-4.9665,-4.9717,-4.9761,-4.9772,-4.9741,-4.9737,-4.9756,-4.9764,-4.9766,-4.9766,-4.952,-4.9732,-4.973,-4.9728,-4.9728,-4.9727,-4.9398,-4.945,-4.9477,-4.9532,-4.9555,-4.9586,-4.9634,-4.9639,-4.9688,-4.9739,-4.9725,-4.979,-4.9814,-4.9869,-4.9887,-4.9936,-4.9906,-4.9933,-4.994,-4.9947,-4.9956,-4.9758,-4.9944,-4.9943,-4.9943,-4.9942,-4.9942,0,-4.9588,-4.9603,-4.9654,-4.9701,-4.9744,-4.9711,-4.9745,-4.9783,-4.9841,-4.9867,-4.9909,-4.9975,-5.0025,-5.0033,-5.008,-5.0118,-5.0105,-5.0131,-5.0128,-5.0132,-4.998,-4.9959,-5.0142,-5.0142,-5.0141,-5.0141,-5.0141,-5.0141,-4.9692,-4.9778,-4.9776,-4.9872,-4.9886,-4.9951,-4.9973,-5.0001,-5.0022,-5.0098,-5.014,-5.0145,-5.0163,-5.0212,-5.0256,-5.0257,-5.0276,-5.0309,-5.0304,-5.0162,-5.0142,-5.0123,-5.0103,-5.0313,-5.0313,-5.045,-5.0452,-5.0453]}]]